Vertical_Velocity
-4 0 -1 -3 -1 -0 -9 -2 -3 1 -5 2 0 10 -8 -3 -1 -6 8 -3 3 3 3 -1 1 0 -2
3 1 1 4 2 1 2 -1 3 -1 2 1 4 3 -4 1 1 -8 5 2 -1 3 -4 1 1 -1 -1
-3 0 0 -2 -1 3 2 2 -1 3 -0 2 -2 4 -1 2 -2 0 3 0 -2 5 -4 0 2 1 0
-4 -2 -2 2 0 1 -0 -1 2 -2 5 -1 -5 1 5 2 -5 4 6 -6 2 3 -2 1 1 2 0
-5 -2 2 -0 0 1 1 0 -1 1 -1 -3 13 -3 3 -3 -3 5 3 -2 2 1 -1 1 2 0 1
-1 -2 -1 -1 3 2 0 2 5 2 -2 9 5 8 -1 -1 2 4 1 0 2 3 -2 2 2 -0 -1
1 -6 1 -1 -2 1 0 4 4 0 -3 4 2 0 -1 -1 1 2 1 1 2 2 -1 1 2 1 0
-1 -3 -3 -2 -0 -0 2 1 2 -1 0 2 1 -2 -1 1 1 2 2 2 1 2 -0 0 1 1 1
-6 -3 -1 -1 -1 -0 -1 -2 3 5 3 -3 -0 1 -1 -0 1 2 3 2 2 1 0 2 1 1 1
-3 -0 -1 -1 -1 0 -0 -2 0 -1 -0 -2 -1 0 -1 0 1 3 1 1 2 0 1 2 1 1 -0
-2 -3 -2 -2 -2 0 0 -1 -1 0 -0 1 2 0 -2 1 0 1 3 3 0 1 2 3 1 -0 0
-3 -4 -1 -2 -2 -1 -1 -1 -0 -1 -0 1 3 -0 -0 1 -1 1 -3 2 1 1 2 3 1 0 0
-2 -1 -3 -4 -2 1 1 1 1 1 0 -0 1 -1 2 2 3 -9 2 1 0 1 2 2 0 0 0
-1 -2 -2 -1 -1 -0 0 -0 1 1 1 0 -2 -4 0 3 0 -0 -1 1 2 2 2 1 0 0 0
-2 -2 -2 -1 -1 0 1 1 1 1 1 1 2 1 1 -2 -0 0 -0 2 1 2 2 0 0 1 0
-2 -1 -0 -0 1 1 0 1 1 1 1 1 1 0 1 -3 1 -1 1 0 1 2 1 4 1 2 0
-2 -1 0 -0 1 1 1 1 0 1 -1 1 2 -0 -1 -1 -0 0 1 -0 2 2 2 3 1 0 0
Height
3133 3131 3130 3130 3130 3128 3126 3124 3125 3122 3121 3120 3120 3119 3117 3116 3115 3113 3110 3109 3109 3111 3110 3112 3114 3115 3116
3124 3123 3122 3121 3120 3119 3117 3115 3114 3113 3111 3112 3111 3112 3110 3109 3109 3107 3104 3104 3104 3105 3106 3108 3109 3111 3112
3115 3114 3112 3111 3109 3108 3106 3106 3105 3103 3102 3102 3104 3103 3102 3103 3102 3100 3099 3099 3101 3102 3101 3103 3104 3106 3107
3105 3103 3102 3100 3098 3097 3097 3096 3095 3093 3094 3094 3095 3096 3095 3095 3095 3094 3094 3096 3097 3098 3099 3098 3099 3101 3102
3096 3093 3091 3088 3087 3086 3085 3085 3084 3084 3085 3085 3087 3087 3087 3088 3088 3088 3088 3090 3093 3093 3094 3094 3094 3096 3098
3087 3083 3081 3078 3076 3074 3074 3075 3076 3077 3076 3079 3079 3079 3079 3079 3080 3081 3083 3084 3086 3087 3087 3088 3090 3091 3093
3076 3073 3070 3067 3065 3064 3065 3067 3067 3068 3068 3070 3071 3071 3071 3070 3072 3074 3076 3078 3079 3080 3081 3083 3085 3086 3088
3066 3063 3060 3057 3056 3055 3056 3057 3059 3060 3062 3062 3063 3063 3062 3063 3065 3068 3070 3072 3072 3074 3075 3078 3080 3082 3084
3056 3053 3050 3047 3046 3047 3048 3050 3052 3053 3053 3053 3054 3054 3055 3057 3059 3062 3064 3065 3066 3068 3069 3072 3075 3077 3079
3048 3044 3042 3040 3038 3039 3039 3041 3042 3044 3045 3045 3046 3047 3049 3052 3054 3056 3057 3059 3061 3063 3064 3067 3070 3072 3073
3040 3037 3035 3033 3032 3032 3032 3033 3033 3035 3036 3037 3039 3041 3044 3047 3049 3050 3051 3053 3056 3057 3060 3063 3065 3066 3068
3034 3031 3030 3028 3027 3027 3027 3028 3028 3029 3031 3032 3034 3036 3039 3041 3044 3045 3047 3049 3050 3052 3055 3057 3060 3061 3062
3028 3027 3025 3024 3024 3024 3024 3024 3024 3025 3026 3028 3030 3031 3034 3036 3038 3041 3042 3043 3045 3047 3049 3051 3053 3055 3056
3022 3021 3021 3021 3021 3020 3020 3020 3021 3021 3022 3023 3026 3028 3030 3031 3033 3035 3036 3038 3040 3041 3043 3044 3046 3047 3049
3017 3016 3016 3016 3016 3016 3016 3016 3016 3017 3017 3019 3020 3023 3024 3026 3028 3029 3030 3032 3033 3035 3036 3038 3039 3040 3041
3012 3011 3010 3010 3010 3010 3011 3011 3011 3012 3013 3014 3015 3017 3019 3020 3022 3023 3024 3025 3027 3029 3030 3032 3032 3034 3034
3006 3005 3004 3003 3004 3004 3005 3006 3006 3007 3008 3009 3010 3011 3012 3014 3015 3016 3018 3020 3021 3023 3024 3024 3024 3025 3025